Regional Weather Roundup
Issued by NWS

Home | Current Version | Previous Version | Graphics & Text | Print | Product List | Glossary Off
Versions: 1 2 3 4 5 6 7 8 9 10 11 12 13 14 15 16 17 18 19 20 21 22 23 24 25 26 27 28 29 30 31 32 33 34 35 36 37 38 39 40 41 42 43 44 45 46 47 48 49 50

000
ASUS43 KLMK 252302
RWRKY
KENTUCKY REGIONAL WEATHER ROUNDUP
NATIONAL WEATHER SERVICE LOUISVILLE KY
600 PM EST TUE NOV 25 2014

NOTE "FAIR" INDICATES FEW OR NO CLOUDS BELOW 12,000 FEET
WITH NO SIGNIFICANT WEATHER AND/OR OBSTRUCTIONS TO VISIBILITY.

KYZ001>023-026-027-061>063-070>075-260000-
WESTERN AND SOUTH CENTRAL KENTUCKY

CITY           SKY/WX    TMP DP  RH WIND       PRES   REMARKS
PADUCAH        PTCLDY    40  26  57 CALM      30.15S
HENDERSON      MOCLDY    36  27  69 N3        30.17S
OWENSBORO      MOCLDY    38  29  70 N8        30.17S WCI  32
HOPKINSVILLE   CLOUDY    42  26  52 N5        30.14R
BOWLING GREEN  PTCLDY    45  25  45 NW3       30.14R
GLASGOW        NOT AVBL
$$

KYZ024-025-028>034-038-045-046-053-260000-
NORTH CENTRAL KENTUCKY

CITY           SKY/WX    TMP DP  RH WIND       PRES   REMARKS
LOUISVILLE/SDF CLOUDY    40  27  59 W7        30.14R
LOUISVILLE/LOU MOCLDY    42  26  53 W5        30.14R
FORT KNOX      MOCLDY    38  27  65 W3        30.12R
$$

KYZ035>037-039>044-047>052-055>060-089>105-260000-
NORTHEAST KENTUCKY

CITY           SKY/WX    TMP DP  RH WIND       PRES   REMARKS
LEXINGTON      MOCLDY    39  27  62 NW6       30.12R WCI  35
COVINGTON      MOCLDY    38  26  62 NW5       30.13R WCI  34
FRANKFORT      CLOUDY    40  26  57 NW5       30.12S
$$

KYZ054-064>069-076>088-106>120-260000-
SOUTHEAST KENTUCKY

CITY           SKY/WX    TMP DP  RH WIND       PRES   REMARKS
JACKSON        PTCLDY    47  27  45 N6        30.08R
LONDON         MOCLDY    48  28  46 N3        30.08R
SOMERSET       NOT AVBL
MIDDLESBORO    NOT AVBL
MONTICELLO     CLOUDY    46  31  56 NW7       30.13R
$$




USA.gov is the U.S. government's official web portal to all federal, state and local government web resources and services.